Location: Vihti�l�
(61.3833°N, 23.0667°E)
Time: 05:28:41
(UTC+00:00)

deb Chang Zheng 4 - Pass Details

Date: 29 November 2020
Orbit: 601 x 623 km, 98.6° (Epoch: 22 January)

Event Time Altitude Azimuth Distance (km) Brightness Sun altitude
Rises 05:21:53 0° 17° (NNE) 2,908 6.9 -11.3°
Reaches altitude 10° 05:24:19 10° 5° (N) 2,002 6.0 -11.1°
Maximum altitude 05:27:57 27° 308° (NW) 1,218 4.5 -10.7°
Drops below altitude 10° 05:31:36 10° 252° (WSW) 2,001 5.8 -10.3°
Sets 05:34:02 0° 240° (WSW) 2,907 6.7 -10.0°
